Meteo pe oră la Abak

Astăzi, 5 August, Joi

Timp Temperatura Precipitaţii Vânt Presiune Umiditate
00:00 +25°C° 0.3 mm 1 m/s 757 mmHg 95%
01:00 +25°C° 0 mm 1 m/s 757 mmHg 95%
02:00 +25°C° 0 mm 1 m/s 757 mmHg 95%
03:00 +25°C° 0 mm 1 m/s 756 mmHg 95%
04:00 +25°C° 0 mm 1 m/s 756 mmHg 95%
05:00 +25°C° 0.3 mm 1 m/s 756 mmHg 95%
06:00 +25°C° 0.3 mm 1 m/s 757 mmHg 95%
07:00 +25°C° 0.3 mm 1 m/s 757 mmHg 95%
08:00 +26°C° 1.1 mm 1 m/s 757 mmHg 89%
09:00 +27°C° 1.1 mm 1 m/s 758 mmHg 83%
10:00 +29°C° 1.1 mm 1 m/s 758 mmHg 77%
11:00 +29°C° 0.5 mm 2 m/s 758 mmHg 73%
12:00 +30°C° 0.5 mm 2 m/s 757 mmHg 68%
13:00 +31°C° 0.5 mm 2 m/s 757 mmHg 64%
14:00 +31°C° 1.1 mm 2 m/s 756 mmHg 67%
15:00 +30°C° 1.1 mm 2 m/s 756 mmHg 69%
16:00 +30°C° 1.1 mm 2 m/s 755 mmHg 72%
17:00 +29°C° 1.1 mm 2 m/s 756 mmHg 77%
18:00 +27°C° 1.1 mm 2 m/s 756 mmHg 81%
19:00 +26°C° 1.1 mm 2 m/s 756 mmHg 86%
20:00 +26°C° 0.8 mm 2 m/s 757 mmHg 88%
21:00 +26°C° 0.8 mm 2 m/s 757 mmHg 89%
22:00 +26°C° 0.8 mm 2 m/s 758 mmHg 90%
23:00 +25°C° 0.3 mm 1 m/s 758 mmHg 90%

Mâine, 6 August, Vineri

Timp Temperatura Precipitaţii Vânt Presiune Umiditate
00:00 +25°C° 0.3 mm 1 m/s 757 mmHg 91%
01:00 +25°C° 0.3 mm 1 m/s 757 mmHg 91%
02:00 +25°C° 0 mm 1 m/s 757 mmHg 91%
03:00 +25°C° 0 mm 1 m/s 757 mmHg 92%
04:00 +25°C° 0 mm 1 m/s 756 mmHg 92%
05:00 +25°C° 0.1 mm 1 m/s 757 mmHg 93%
06:00 +25°C° 0.1 mm 1 m/s 757 mmHg 93%
07:00 +25°C° 0.1 mm 1 m/s 757 mmHg 94%
08:00 +25°C° 0 mm 1 m/s 758 mmHg 91%
09:00 +26°C° 0 mm 1 m/s 758 mmHg 89%
10:00 +26°C° 0 mm 1 m/s 758 mmHg 86%
11:00 +28°C° 0 mm 1 m/s 758 mmHg 78%
12:00 +29°C° 0 mm 1 m/s 757 mmHg 69%
13:00 +31°C° 0 mm 2 m/s 757 mmHg 61%
14:00 +31°C° 0.1 mm 2 m/s 756 mmHg 60%
15:00 +31°C° 0.1 mm 2 m/s 755 mmHg 58%
16:00 +32°C° 0.1 mm 2 m/s 755 mmHg 57%
17:00 +30°C° 0.3 mm 2 m/s 755 mmHg 64%
18:00 +28°C° 0.3 mm 2 m/s 755 mmHg 72%
19:00 +27°C° 0.3 mm 1 m/s 756 mmHg 80%
20:00 +27°C° 0.2 mm 1 m/s 756 mmHg 82%
21:00 +26°C° 0.2 mm 1 m/s 756 mmHg 85%
22:00 +26°C° 0.2 mm 1 m/s 757 mmHg 87%
23:00 +26°C° 0 mm 1 m/s 757 mmHg 88%

Poimâine, 7 August, Sâmbătă

Timp Temperatura Precipitaţii Vânt Presiune Umiditate
00:00 +26°C° 0 mm 1 m/s 756 mmHg 89%
01:00 +26°C° 0 mm 1 m/s 756 mmHg 90%
02:00 +25°C° 0.1 mm 1 m/s 756 mmHg 91%
03:00 +25°C° 0.1 mm 1 m/s 756 mmHg 92%
04:00 +25°C° 0.1 mm 1 m/s 756 mmHg 92%
05:00 +25°C° 0 mm 1 m/s 756 mmHg 92%
06:00 +25°C° 0 mm 1 m/s 756 mmHg 93%
07:00 +25°C° 0 mm 1 m/s 757 mmHg 93%
08:00 +26°C° 0.2 mm 1 m/s 757 mmHg 85%
09:00 +28°C° 0.2 mm 1 m/s 757 mmHg 78%
10:00 +29°C° 0.2 mm 1 m/s 757 mmHg 70%
11:00 +30°C° 0.8 mm 2 m/s 757 mmHg 68%
12:00 +30°C° 0.8 mm 2 m/s 756 mmHg 67%
13:00 +31°C° 0.8 mm 2 m/s 756 mmHg 65%
14:00 +30°C° 1.6 mm 2 m/s 755 mmHg 68%
15:00 +30°C° 1.6 mm 2 m/s 755 mmHg 72%
16:00 +29°C° 1.6 mm 2 m/s 754 mmHg 76%
17:00 +28°C° 2 mm 2 m/s 755 mmHg 80%
18:00 +27°C° 2 mm 2 m/s 755 mmHg 85%
19:00 +26°C° 2 mm 2 m/s 755 mmHg 89%
20:00 +26°C° 2.6 mm 2 m/s 756 mmHg 91%
21:00 +25°C° 2.6 mm 2 m/s 756 mmHg 94%
22:00 +25°C° 2.6 mm 2 m/s 757 mmHg 96%
23:00 +25°C° 1.5 mm 2 m/s 757 mmHg 96%

8 August, Duminică

Timp Temperatura Precipitaţii Vânt Presiune Umiditate
00:00 +25°C° 1.5 mm 2 m/s 757 mmHg 96%
01:00 +25°C° 1.5 mm 2 m/s 757 mmHg 96%
02:00 +25°C° 0.2 mm 2 m/s 756 mmHg 96%
03:00 +25°C° 0.2 mm 1 m/s 756 mmHg 95%
04:00 +25°C° 0.2 mm 1 m/s 756 mmHg 95%
05:00 +25°C° 0.1 mm 1 m/s 756 mmHg 94%
06:00 +24°C° 0.1 mm 1 m/s 757 mmHg 94%
07:00 +24°C° 0.1 mm 1 m/s 757 mmHg 93%
08:00 +25°C° 0.1 mm 1 m/s 757 mmHg 91%
09:00 +25°C° 0.1 mm 1 m/s 758 mmHg 88%
10:00 +23°C° 0.1 mm 0 m/s 758 mmHg 85%
11:00 +26°C° 0 mm 1 m/s 758 mmHg 83%
12:00 +26°C° 0 mm 1 m/s 758 mmHg 81%
13:00 +27°C° 0 mm 1 m/s 757 mmHg 78%
14:00 +27°C° 0.3 mm 1 m/s 757 mmHg 81%
15:00 +27°C° 0.3 mm 1 m/s 756 mmHg 83%
16:00 +26°C° 0.3 mm 1 m/s 756 mmHg 86%
17:00 +26°C° 0.1 mm 1 m/s 756 mmHg 88%
18:00 +25°C° 0.1 mm 1 m/s 757 mmHg 90%
19:00 +25°C° 0.1 mm 1 m/s 757 mmHg 92%
20:00 +25°C° 0 mm 1 m/s 757 mmHg 92%
21:00 +25°C° 0 mm 1 m/s 758 mmHg 92%
22:00 +25°C° 0 mm 1 m/s 758 mmHg 93%
23:00 +24°C° 0 mm 1 m/s 758 mmHg 93%

9 August, Luni

Timp Temperatura Precipitaţii Vânt Presiune Umiditate
00:00 +24°C° 0 mm 1 m/s 758 mmHg 93%
01:00 +24°C° 0 mm 1 m/s 757 mmHg 93%
02:00 +24°C° 0 mm 1 m/s 757 mmHg 94%
03:00 +24°C° 0 mm 1 m/s 757 mmHg 94%
04:00 +24°C° 0 mm 1 m/s 757 mmHg 95%
05:00 +24°C° 0 mm 1 m/s 757 mmHg 95%
06:00 +24°C° 0 mm 1 m/s 757 mmHg 94%
07:00 +24°C° 0 mm 1 m/s 758 mmHg 94%
08:00 +26°C° 0.1 mm 1 m/s 758 mmHg 86%
09:00 +27°C° 0.1 mm 1 m/s 758 mmHg 79%
10:00 +29°C° 0.1 mm 2 m/s 759 mmHg 71%
11:00 +29°C° 0.8 mm 2 m/s 758 mmHg 69%
12:00 +30°C° 0.8 mm 2 m/s 757 mmHg 67%
13:00 +31°C° 0.8 mm 2 m/s 757 mmHg 65%
14:00 +30°C° 0.3 mm 3 m/s 756 mmHg 68%
15:00 +30°C° 0.3 mm 3 m/s 756 mmHg 70%
16:00 +29°C° 0.3 mm 3 m/s 755 mmHg 72%
17:00 +28°C° 0.1 mm 3 m/s 756 mmHg 76%
18:00 +27°C° 0.1 mm 3 m/s 756 mmHg 80%
19:00 +27°C° 0.1 mm 2 m/s 756 mmHg 83%
20:00 +26°C° 0 mm 2 m/s 757 mmHg 85%
21:00 +26°C° 0 mm 2 m/s 757 mmHg 86%
22:00 +26°C° 0 mm 1 m/s 758 mmHg 87%
23:00 +25°C° 0 mm 1 m/s 758 mmHg 88%

10 August, Marţi

Timp Temperatura Precipitaţii Vânt Presiune Umiditate
00:00 +25°C° 0 mm 1 m/s 757 mmHg 89%
01:00 +25°C° 0 mm 1 m/s 757 mmHg 89%
02:00 +25°C° 0 mm 1 m/s 757 mmHg 89%
03:00 +25°C° 0 mm 1 m/s 757 mmHg 90%
04:00 +25°C° 0 mm 1 m/s 756 mmHg 90%
05:00 +25°C° 0 mm 1 m/s 757 mmHg 90%
06:00 +25°C° 0 mm 1 m/s 757 mmHg 90%
07:00 +25°C° 0 mm 1 m/s 757 mmHg 89%
08:00 +25°C° 0.1 mm 1 m/s 757 mmHg 86%
09:00 +26°C° 0.1 mm 2 m/s 758 mmHg 83%
10:00 +26°C° 0.1 mm 2 m/s 758 mmHg 80%
11:00 +27°C° 0.1 mm 2 m/s 758 mmHg 77%
12:00 +28°C° 0.1 mm 2 m/s 757 mmHg 73%
13:00 +29°C° 0.1 mm 2 m/s 757 mmHg 70%
14:00 +29°C° 0.2 mm 2 m/s 756 mmHg 69%
15:00 +29°C° 0.2 mm 2 m/s 755 mmHg 68%
16:00 +29°C° 0.2 mm 2 m/s 755 mmHg 68%
17:00 +28°C° 0 mm 2 m/s 755 mmHg 72%
18:00 +27°C° 0 mm 2 m/s 755 mmHg 76%
19:00 +26°C° 0 mm 2 m/s 756 mmHg 80%
20:00 +26°C° 0 mm 2 m/s 756 mmHg 83%
21:00 +25°C° 0 mm 1 m/s 756 mmHg 85%
22:00 +25°C° 0 mm 1 m/s 757 mmHg 87%
23:00 +25°C° 0 mm 1 m/s 757 mmHg 88%
Arată mai mult

Formular de consimțământ

Meteoprog și furnizorii noștri de servicii pot stoca și accesa date personale, precum cookies, identificatori de dispozitiv sau alte tehnologii similare pe dispozitivul dumneavoastră și procesa astfel de date pentru a personaliza conținutul și reclamele, dar și pentru a oferi caracteristici de social media și pentru a analiza traficul.

  • Stocarea și/sau accesarea informațiilor pe dispozitivul dumneavoastră

    Cookies, identificatori de dispozitiv sau alte informații pot fi stocate sau accesate pe dispozitiv în scopurile indicate mai sus.

  • Reclame și conținut personalizat, evaluarea reclamelor și a conținutului, informații despre audiențe și dezvoltarea produselor

    Reclamele și conținutul pot fi personalizate pe baza unui profil. Pot fi adăugate date suplimentare pentru a personaliza mai bine reclamele și conținutul. Performanța reclamelor și conținutului poate fi măsurată. Pot fi obținute informații despre utilizatorii care au văzut reclamele și conținutul. Aceste date pot fi utilizate pentru a dezvolta sau îmbunătăți experiența utilizatorilor, sistemele și software-ul.

Dând clic pe ‘Sunt de acord’, permiteți utilizarea cookie-urilor menționate, a identificatorilor de dispozitiv, balizelor web sau altor tehnologii similare. Setările pot fi modificate din browser-ul dispozitivului dumneavoastră.

În anumite scopuri, interesele legitime pot prima asupra consimțământului. Puteți citi mai multe informații în acest sens în Politica privind Confidențialitatea Datelor și Cookie.